カタログに戻る

STARLINK-30829

運用中通信VLEO
NORAD 58158·PAYLOAD·🇺🇸 United States

打ち上げ Oct 29, 2023 から Vandenberg Space Force Base

Loading…

次のパス (今後24時間)

TLE

最新Source: CelesTrak SupGP

元期: Sep 14, 2026, 22:10 UTC

1 58158C 23166J   26257.92409722  .00045953  00000+0  14779-2 0  2574
2 58158  53.1587  59.5364 0001300  81.2782  55.6466 15.31674758    12

AllMySatでSTARLINK-30829をリアルタイム追跡

Download on the App Store